Theta_e
306 299 295 295 298 301 303 303 304 304 304 303 301 300 299 299 299 301 302 303 304 302 301 302 302 302 304 305 305 306 306 304 304 303 303 303 304 304 304 304 304 304 305 307 307 308 312 318 322 323 323 323 324 325 325 324 323 322 321 320 320 321 322 322 321 320 320 319 319 319 319 319 320 320 320 320 321 322 322 322 323 322 323 323 322 322
304 297 297 300 302 303 304 304 304 304 303 302 300 298 298 298 297 301 302 302 303 302 298 301 301 302 303 306 307 307 304 303 305 306 306 306 305 305 304 304 305 306 306 305 304 305 308 314 319 321 322 321 321 323 324 324 324 324 323 321 321 321 321 322 322 321 320 321 321 320 320 320 321 320 319 320 321 321 322 322 322 322 323 323 323 321
296 294 299 302 304 304 304 304 304 302 301 301 300 299 298 298 299 301 302 302 301 301 299 298 299 302 304 305 307 307 305 305 306 307 307 307 306 305 305 305 305 305 305 304 305 305 307 311 315 320 321 322 323 323 324 325 324 324 323 322 321 321 321 322 322 322 321 322 321 321 321 321 320 322 322 322 321 321 321 322 322 322 323 323 323 323
291 295 300 304 304 302 302 303 302 301 301 300 299 297 296 299 298 295 301 301 300 300 295 298 299 301 304 305 305 307 306 306 306 306 306 307 306 305 305 305 305 304 305 304 304 305 306 309 313 316 320 321 322 322 323 324 324 324 323 323 322 322 321 322 322 321 323 322 322 322 321 321 321 320 320 321 319 321 321 321 322 322 322 323 323 323
294 299 303 303 303 301 299 300 300 299 297 300 300 299 298 298 300 300 299 300 300 298 297 294 295 296 298 297 299 301 303 304 306 303 303 304 305 307 306 305 305 306 306 306 305 304 304 307 311 314 318 321 321 322 323 324 324 325 324 324 323 323 322 322 321 321 322 321 320 320 316 316 318 315 318 318 319 320 320 321 321 322 322 322 323 324
298 301 304 301 301 301 300 298 299 299 296 298 300 300 301 301 300 300 299 298 294 293 294 295 288 292 299 300 300 302 300 299 302 302 302 303 304 304 303 304 305 305 306 307 307 306 305 306 310 313 315 318 320 321 323 324 325 325 325 325 324 324 323 322 322 322 322 321 321 319 318 316 317 317 317 317 318 319 319 320 322 322 322 322 322 323
299 303 303 299 299 299 299 298 300 301 296 295 297 303 302 302 301 300 297 297 292 291 294 298 292 289 294 297 300 301 301 301 303 301 302 303 304 304 304 305 305 306 306 306 306 305 304 305 308 312 314 317 319 321 323 324 324 325 325 325 325 324 324 323 322 322 321 321 321 320 319 319 318 318 319 320 321 320 321 321 321 322 322 323 322 322
301 300 300 300 298 297 297 296 300 301 297 294 302 302 302 301 300 300 299 297 294 295 296 295 295 291 292 298 296 297 298 300 301 302 301 302 304 304 305 305 305 306 306 306 306 305 305 306 307 310 313 315 318 320 322 323 324 324 324 325 325 325 323 324 323 322 322 321 321 320 320 319 319 319 319 320 320 321 320 320 321 321 322 322 323 323
301 297 299 297 297 297 296 299 302 302 298 298 303 304 301 302 302 301 299 295 294 292 291 295 292 287 289 294 300 297 296 295 297 299 301 302 303 304 305 306 306 307 307 306 305 304 305 305 306 309 312 315 317 319 321 322 323 324 324 324 325 325 324 324 323 322 322 321 321 321 320 319 319 320 320 319 319 320 319 320 320 321 321 322 323 323
299 301 300 300 297 295 299 302 303 302 297 299 303 305 304 303 301 299 294 292 289 289 288 294 293 289 291 292 295 298 299 299 299 299 300 302 303 304 305 306 307 307 307 305 305 305 305 306 306 307 309 312 316 318 320 322 323 323 324 324 323 324 325 324 324 322 322 321 320 321 320 319 319 319 319 318 318 319 319 319 320 320 321 321 322 322
300 304 305 301 297 299 301 301 303 303 302 301 301 298 296 297 296 289 288 290 288 287 291 296 294 294 288 294 295 294 297 300 300 301 301 300 302 304 305 306 307 308 308 308 306 305 305 305 305 305 305 307 312 316 318 320 321 323 323 323 323 324 325 325 324 323 322 321 321 321 321 320 319 319 319 318 317 318 319 319 319 320 320 321 321 322
299 300 299 300 304 302 303 299 302 304 302 302 295 292 294 289 288 291 288 288 287 286 293 297 295 295 287 291 296 300 297 301 301 301 303 303 303 303 304 305 307 307 308 308 307 306 305 303 302 302 303 304 307 314 317 318 320 321 322 323 322 323 324 325 324 324 323 322 321 321 321 320 320 320 319 318 318 318 318 319 319 320 320 320 321 321
294 296 299 301 304 302 299 298 297 301 300 300 296 296 291 285 288 284 287 284 285 286 288 294 295 288 291 297 293 296 297 296 301 304 304 304 305 305 305 306 306 306 304 305 305 306 305 305 305 302 303 303 303 310 315 318 319 320 321 321 322 322 323 324 324 324 323 322 322 321 321 321 321 320 320 319 318 319 318 319 319 319 319 320 320 320
291 297 298 298 300 302 301 294 292 292 296 297 295 293 288 284 283 282 285 287 288 290 290 290 294 291 295 298 303 300 297 299 300 300 301 302 304 304 304 304 303 303 303 304 304 304 304 304 304 304 304 304 304 306 312 316 317 319 320 320 321 322 323 323 324 324 323 323 323 322 322 322 321 320 320 320 319 319 319 320 319 320 320 320 320 321
285 285 292 297 292 302 300 298 298 295 296 297 299 296 290 289 285 280 283 281 284 287 287 290 290 285 288 289 291 297 303 302 301 301 302 301 301 301 302 301 300 300 300 299 300 302 303 304 304 305 305 304 304 304 307 312 316 318 318 319 319 320 321 322 323 324 323 323 323 323 323 322 322 321 321 321 321 320 319 319 319 320 321 321 321 322
288 289 296 302 299 302 298 301 302 297 295 298 299 298 292 288 291 286 285 285 286 285 283 286 288 290 294 294 291 295 294 293 294 297 297 300 301 302 302 303 303 302 301 298 298 300 301 303 303 303 303 303 304 303 304 307 312 315 317 318 319 320 321 321 321 323 323 324 324 323 322 322 322 320 321 321 320 320 321 320 320 320 320 321 322 322
289 287 297 300 302 300 300 301 300 301 287 294 296 290 293 298 294 284 281 279 283 284 283 288 288 292 297 299 300 298 295 295 295 294 295 298 301 302 303 304 304 304 300 298 297 298 299 299 299 301 302 303 303 303 303 305 308 312 315 316 317 318 320 320 321 322 323 323 323 323 323 323 322 321 320 321 321 321 321 321 320 320 320 321 321 322
288 288 298 297 295 300 303 303 301 302 299 298 290 294 295 294 292 288 282 280 280 280 282 289 285 287 285 285 293 298 297 298 296 296 296 298 300 301 304 305 306 302 298 299 299 298 298 298 299 300 301 302 303 303 303 304 305 310 313 315 316 317 317 319 320 320 322 322 322 323 323 323 323 322 321 321 321 321 320 320 320 320 320 320 321 321
294 286 290 297 297 299 302 301 298 301 301 297 294 303 294 286 286 286 284 281 278 279 276 285 287 288 289 289 285 286 294 297 298 297 296 295 296 299 303 305 305 299 296 297 298 299 299 299 299 300 300 301 301 301 302 303 304 307 310 313 315 316 317 318 319 320 321 322 323 323 322 323 323 322 322 322 321 321 320 320 320 320 320 320 320 320
292 284 288 297 297 298 299 298 288 293 298 296 297 298 299 292 290 288 288 285 287 279 279 280 284 282 291 292 294 290 290 295 297 297 297 297 297 298 301 303 304 304 300 299 299 299 300 301 301 301 300 299 299 300 300 301 300 302 307 310 311 314 315 316 317 318 318 320 321 322 322 322 323 322 322 322 321 320 320 320 320 320 319 320 320 320
286 291 283 289 296 298 289 294 292 294 290 291 291 293 294 291 289 294 291 289 285 281 282 277 280 283 290 294 293 294 293 293 295 297 298 299 299 299 300 302 302 302 300 299 299 300 300 300 299 297 296 297 296 296 297 298 300 301 303 306 309 311 313 313 315 317 318 319 320 320 321 321 322 322 322 322 321 320 320 320 319 320 321 319 319 320
285 286 283 288 289 290 292 298 298 297 296 294 293 292 294 291 288 285 283 291 289 284 278 279 279 287 287 292 296 296 296 295 296 297 298 300 301 302 302 301 299 298 297 297 298 299 300 297 296 295 294 294 294 296 296 297 296 297 299 303 307 309 311 313 314 315 317 318 319 319 320 321 322 322 322 321 321 320 320 320 320 319 318 317 319 318
292 288 285 283 286 290 295 298 300 300 299 298 296 293 297 295 292 288 282 286 288 287 280 282 280 286 288 290 294 296 296 297 297 297 298 299 300 301 301 300 297 296 298 297 297 298 297 297 297 296 295 296 296 297 296 295 296 298 298 299 302 306 309 312 313 315 316 317 317 318 320 320 320 321 320 320 320 319 319 319 319 318 317 317 316 314
293 285 283 285 287 289 291 294 293 298 298 295 296 296 296 292 293 291 289 290 288 288 287 285 283 287 293 287 292 290 292 295 296 295 296 297 298 300 300 299 296 295 295 294 295 295 296 294 292 292 294 296 296 296 297 297 296 296 297 298 299 301 305 307 309 310 311 314 315 316 317 318 318 318 317 317 318 318 318 319 318 316 315 316 313 311
286 285 285 282 283 284 286 289 290 290 292 292 293 295 295 296 296 294 293 287 287 288 288 286 281 286 294 290 288 289 288 290 293 293 294 296 296 296 297 297 296 295 294 294 294 295 293 291 292 296 296 296 297 296 296 296 296 296 297 296 297 299 300 301 303 305 308 310 312 312 313 314 315 315 315 315 316 316 317 316 315 310 312 311 310 311
288 287 285 279 277 276 277 279 281 286 289 291 292 294 295 294 294 291 287 288 285 288 289 286 286 292 292 290 290 290 288 289 291 292 291 294 296 296 295 296 296 292 294 293 293 292 295 296 294 293 293 295 295 295 295 294 294 295 296 297 296 297 296 297 295 300 303 305 307 309 309 311 311 313 314 314 315 315 315 312 309 309 308 310 313 309
286 286 287 286 284 282 284 284 285 286 286 287 290 293 293 295 295 294 291 288 285 288 287 289 291 291 293 292 290 290 287 291 291 288 291 293 293 293 293 295 294 294 294 294 293 293 291 291 295 296 295 295 295 293 295 295 295 294 294 295 294 294 295 294 294 297 300 301 303 307 307 309 310 312 312 312 313 311 308 307 307 307 309 307 310 309
285 284 284 285 285 286 286 286 287 287 285 286 286 290 294 293 293 292 289 287 293 289 284 291 292 290 292 295 293 289 290 289 289 289 289 289 292 294 294 292 292 291 292 291 291 292 294 295 295 294 295 294 295 294 293 294 294 295 295 295 295 293 292 294 292 295 297 299 300 303 306 307 307 307 309 309 308 308 308 307 306 307 306 304 307 307
284 283 284 285 285 286 286 286 287 286 286 287 287 286 287 293 293 290 290 293 293 288 286 292 293 290 293 296 296 293 292 292 293 292 293 294 291 291 291 291 292 292 292 292 294 294 294 294 294 294 293 293 292 292 293 293 293 292 292 293 293 291 293 292 292 294 295 296 298 301 302 299 298 299 302 301 302 302 303 303 303 302 302 302 304 304
287 283 283 285 284 284 285 286 286 285 285 285 286 287 287 287 288 291 293 294 293 292 293 293 293 292 295 296 297 297 294 292 292 291 289 289 289 289 289 289 290 291 291 293 293 293 293 293 293 292 291 291 292 293 293 293 293 293 293 294 293 292 292 289 292 293 293 295 298 296 294 295 294 297 295 297 300 301 300 301 300 301 301 302 302 302
288 283 288 285 283 284 285 286 286 285 285 284 286 287 287 287 287 286 287 291 294 293 294 294 292 292 296 298 298 298 296 292 292 292 293 292 289 288 289 291 291 292 292 293 293 292 292 292 292 291 290 291 291 292 293 294 295 293 292 293 292 292 291 290 292 292 293 295 294 291 291 293 294 295 297 299 299 299 300 301 300 301 301 301 301 301
286 283 284 284 281 280 284 284 285 285 285 284 285 285 286 286 284 286 286 289 288 289 293 292 290 291 297 300 300 294 292 295 296 297 297 295 293 291 292 293 293 293 293 293 292 291 291 291 292 292 293 293 293 292 292 293 293 289 293 293 292 291 288 290 292 293 293 292 290 291 292 292 293 295 296 297 299 299 300 299 300 301 301 300 298 299
285 283 280 281 279 279 283 285 284 284 283 281 282 285 287 287 289 290 291 292 290 290 287 288 290 297 299 300 298 292 295 296 297 296 295 296 298 298 297 296 296 295 295 294 292 291 291 292 293 294 294 293 293 293 293 293 290 293 294 292 292 288 289 291 291 291 292 291 291 291 292 291 294 295 295 297 299 299 299 300 300 300 300 300 298 295
285 284 281 283 275 279 281 282 283 278 273 276 289 291 290 287 288 286 286 289 291 292 289 295 297 300 300 299 298 297 294 297 298 296 297 299 299 299 299 298 296 296 295 294 293 294 294 293 293 294 294 294 293 293 294 290 293 294 291 289 288 289 290 291 290 291 292 291 291 291 291 291 294 295 296 297 297 298 299 299 301 298 297 296 294 298
284 284 281 281 276 274 277 277 276 271 272 288 286 289 293 293 292 290 290 292 293 294 294 294 295 296 299 300 300 300 300 299 295 296 297 296 296 296 297 297 295 293 293 293 293 293 293 293 293 293 292 292 292 291 289 290 291 289 288 288 289 289 291 291 291 290 291 290 290 289 290 292 294 296 295 295 296 296 297 297 296 295 294 295 296 296
283 283 281 281 279 279 275 274 270 271 283 285 285 287 290 293 293 290 289 292 294 294 294 294 296 298 298 299 300 300 299 294 294 295 297 299 299 299 296 296 296 294 293 294 294 295 293 292 293 294 294 294 292 292 290 292 290 289 289 287 290 288 291 291 292 292 290 290 289 291 292 293 294 295 294 294 294 295 295 294 295 295 292 292 291 291
286 284 283 278 283 275 274 276 275 282 281 282 283 284 287 286 286 287 283 287 294 295 296 295 297 298 298 299 300 301 298 293 295 300 300 299 299 298 299 300 300 299 296 296 295 296 296 295 294 294 294 293 294 294 292 290 289 290 288 288 288 288 289 290 291 292 291 291 291 292 293 294 295 294 294 294 294 294 294 294 293 292 291 293 292 292
288 284 283 280 278 281 276 272 274 274 271 277 284 287 291 292 294 293 288 287 294 296 297 297 296 297 297 298 299 298 295 294 294 297 302 299 296 298 298 300 299 299 299 299 299 297 296 296 295 293 294 294 294 292 289 287 289 290 289 288 287 288 289 290 292 292 291 292 291 292 293 294 294 294 293 293 294 294 293 293 292 292 291 295 292 293
287 287 285 281 277 277 276 273 273 272 275 283 283 286 289 291 293 289 288 283 291 295 297 297 296 297 297 296 297 291 291 290 292 297 298 295 297 298 299 298 298 299 300 300 300 299 299 299 297 296 293 292 292 292 288 288 289 290 290 289 288 288 289 290 291 291 292 292 292 292 293 293 294 294 293 293 293 293 292 292 292 291 291 293 292 292
284 283 282 279 277 277 277 275 273 276 277 282 284 285 287 293 294 288 278 279 290 295 297 297 296 296 296 296 289 290 292 290 293 297 294 297 297 299 298 299 299 299 299 299 299 299 300 299 293 292 293 293 294 294 289 288 290 290 291 290 289 289 290 290 292 292 290 290 292 292 292 293 292 292 292 292 291 291 291 291 291 290 291 291 293 292
281 281 282 277 278 277 278 274 276 278 284 285 285 285 289 293 291 281 275 284 290 294 297 297 297 297 296 291 291 293 295 298 299 299 292 293 293 293 297 298 300 300 300 299 299 296 298 297 296 297 297 296 296 292 288 289 291 291 291 290 289 289 291 292 291 289 290 290 291 292 292 292 292 292 291 291 291 290 290 291 291 290 290 290 291 291
280 282 281 282 278 276 276 274 274 277 283 285 286 289 292 289 278 278 289 291 291 290 291 294 296 296 295 293 293 295 298 299 299 298 296 295 293 294 295 295 295 295 295 295 295 296 297 296 294 293 293 293 293 290 289 290 291 292 291 290 290 292 294 291 289 288 290 291 291 292 291 291 291 291 290 290 290 290 290 290 290 290 290 291 290 289
279 278 277 278 280 280 277 273 273 270 279 288 286 285 289 283 284 291 292 288 289 293 291 290 293 295 295 295 294 295 296 296 296 297 297 298 295 294 295 293 293 294 296 296 296 294 294 294 294 294 294 295 292 289 288 290 291 292 291 291 293 294 292 288 288 289 290 290 290 290 290 290 290 290 290 289 290 290 289 289 289 289 289 289 289 289
282 278 278 280 284 276 276 273 274 280 286 287 288 283 288 290 292 291 289 290 292 291 289 291 291 293 294 295 296 295 294 293 294 294 295 296 295 294 294 294 294 294 294 295 295 295 291 293 294 295 294 294 292 289 288 290 290 290 290 292 294 291 287 287 288 289 289 289 289 289 289 289 289 289 290 289 290 290 289 289 289 289 290 289 290 290
282 279 280 277 283 281 278 281 285 286 286 288 290 289 291 294 294 292 291 291 291 290 290 291 292 293 293 294 294 294 294 292 293 295 295 296 297 296 295 295 295 295 295 295 296 292 289 292 293 293 293 292 289 286 287 289 290 290 290 292 291 289 288 288 287 288 288 288 288 289 289 289 289 289 289 289 290 290 290 289 288 289 289 289 290 290
282 284 284 282 281 284 287 287 287 286 287 288 288 290 290 292 294 293 292 291 291 292 292 291 291 293 292 293 293 293 292 293 292 293 294 294 295 296 295 295 295 294 293 292 292 291 291 290 289 289 290 291 289 288 287 288 289 290 291 292 289 289 288 287 287 287 288 288 288 288 288 288 289 289 289 289 290 291 291 290 289 291 289 290 291 290
278 281 280 279 282 280 276 285 286 287 288 289 289 289 289 289 292 293 293 293 293 293 293 292 293 292 293 294 293 293 293 292 291 293 294 294 294 295 295 295 295 294 293 292 292 291 290 289 289 289 289 290 291 289 288 288 288 290 292 289 288 287 287 287 287 287 287 287 288 288 288 288 289 289 289 289 290 291 291 290 290 290 289 291 291 291
275 280 280 280 280 279 279 283 284 287 289 290 291 289 288 290 291 291 293 294 295 295 294 294 293 291 290 291 293 293 293 292 292 293 293 294 294 295 295 295 294 293 292 291 291 289 289 289 289 290 290 290 292 290 288 288 288 289 289 287 286 287 287 287 287 287 287 287 288 288 288 289 288 288 289 289 290 290 290 290 290 291 291 291 292 291
278 282 272 278 279 280 281 284 285 285 286 287 288 290 292 292 292 293 293 292 292 292 292 292 290 290 290 292 294 294 293 293 292 293 293 294 294 295 295 295 294 292 291 290 289 288 290 290 289 290 290 291 292 290 288 287 288 288 287 286 286 287 287 287 287 287 287 287 288 288 288 289 289 289 289 289 289 290 289 290 290 291 290 290 290 291
280 276 280 280 276 276 277 280 283 280 280 285 287 289 289 291 291 290 290 291 291 291 291 291 290 289 290 292 293 294 293 295 294 293 293 294 294 295 295 294 292 290 289 289 288 286 288 288 289 289 289 290 290 288 288 287 286 284 284 284 285 287 288 287 287 286 286 287 287 288 288 288 288 289 289 289 289 288 287 287 288 289 289 288 287 288
278 279 280 277 276 276 282 284 286 286 286 287 288 290 290 289 289 288 289 290 291 292 292 291 290 290 290 290 290 291 293 294 295 295 294 294 294 295 294 292 291 290 290 288 285 285 285 288 288 287 288 288 287 285 285 284 282 280 281 283 285 286 287 287 286 286 286 287 287 288 288 288 288 289 289 289 289 288 287 286 286 287 288 288 287 287
Wind_Speed
7 13 15 19 22 19 13 12 12 2 1 8 10 9 13 12 7 5 4 4 5 6 12 13 15 18 16 15 15 15 10 8 10 11 11 9 9 10 10 11 13 14 17 12 13 12 12 14 14 13 12 12 12 13 13 14 14 15 14 13 16 14 13 12 12 11 12 12 11 9 12 14 12 11 10 10 10 11 11 11 11 10 9 9 10 10
9 12 17 22 18 14 14 12 7 8 4 5 9 10 11 9 12 7 8 4 4 7 3 8 10 18 14 16 17 14 8 12 15 17 16 15 13 11 12 14 14 15 9 6 6 7 8 10 11 11 11 10 12 12 13 16 17 16 16 15 15 11 13 14 15 14 13 13 14 14 15 13 11 11 12 13 11 12 10 11 11 11 10 10 10 10
10 19 24 21 10 9 8 10 10 10 8 5 5 7 8 10 3 4 7 3 4 4 9 5 10 17 16 16 17 14 11 13 15 17 17 16 15 14 14 15 14 10 13 8 10 7 10 11 13 12 12 12 16 16 17 18 16 16 15 15 14 13 14 14 15 13 14 13 13 13 10 11 9 8 9 8 8 7 9 11 12 11 11 11 11 11
13 20 26 11 11 13 8 7 9 9 9 9 7 6 11 3 7 9 8 5 5 7 2 7 13 14 16 12 14 12 11 13 15 14 14 12 15 16 17 14 13 15 15 13 13 13 12 12 13 12 13 14 12 12 12 13 16 15 15 15 15 15 14 13 14 15 15 13 11 9 5 6 8 7 6 6 5 8 10 12 12 11 12 13 12 12
23 10 9 10 14 15 11 9 12 11 12 11 11 10 8 7 9 6 4 4 3 6 1 3 9 12 14 13 11 10 10 12 13 7 10 11 13 15 12 10 14 17 16 15 13 10 9 10 13 14 15 13 13 14 15 16 16 14 18 18 17 16 16 15 14 16 12 9 8 7 4 4 4 2 6 7 9 12 13 12 12 15 13 12 13 13
17 5 18 19 15 12 12 12 14 12 12 11 15 15 9 3 4 4 3 0 2 6 5 7 5 15 10 17 17 13 7 11 12 11 13 15 14 14 13 15 15 14 14 16 16 14 12 13 12 12 13 13 14 16 16 15 17 15 15 16 15 14 13 15 15 15 11 11 12 10 10 10 11 12 11 14 18 16 15 18 13 9 12 13 13 13
13 8 16 18 15 16 17 15 15 13 12 11 12 14 9 6 5 4 3 2 8 11 3 9 11 12 3 10 10 10 13 15 14 14 16 15 15 14 15 15 15 16 16 14 13 9 8 11 11 13 14 16 16 17 14 13 14 16 15 15 16 15 14 14 14 14 12 12 11 14 15 15 15 16 14 14 12 10 11 8 10 12 11 13 14 14
8 12 12 18 18 18 15 16 16 18 12 11 5 12 11 11 7 5 4 8 7 1 4 3 8 12 13 15 4 6 10 12 14 15 12 12 14 15 15 15 15 17 17 15 14 13 11 12 15 17 17 15 17 16 13 14 14 16 16 15 16 14 14 13 12 14 15 14 14 14 15 14 15 15 15 13 12 8 6 10 12 10 11 12 13 13
24 18 19 20 19 17 20 17 12 15 11 1 7 14 14 12 7 5 6 6 3 2 10 8 1 5 13 4 9 6 9 9 13 13 13 14 14 15 16 17 17 19 17 13 12 13 15 17 17 16 14 15 15 13 13 14 14 14 14 15 14 15 14 13 15 15 15 15 15 15 14 14 13 12 11 7 7 9 8 10 10 11 11 11 13 13
5 17 19 20 17 16 9 9 11 17 13 5 3 10 9 8 3 3 1 1 1 1 13 14 8 9 20 5 8 9 16 18 12 12 14 12 13 16 17 17 18 17 13 10 14 15 16 17 15 13 13 11 12 11 12 12 11 12 12 14 15 16 14 13 14 15 16 17 15 15 15 17 14 11 10 8 9 9 8 11 11 11 11 11 11 12
4 12 14 12 13 8 11 9 16 20 11 5 3 3 4 6 7 0 2 1 2 8 19 15 13 14 17 8 11 12 14 9 8 8 6 6 10 14 15 14 15 15 14 12 13 15 15 12 11 9 11 12 8 8 9 10 11 11 12 14 16 17 14 14 16 16 18 16 16 16 17 18 17 15 13 11 10 9 10 12 12 12 12 10 11 11
4 6 9 5 11 8 12 7 8 14 11 11 4 5 7 1 3 0 1 2 6 11 23 13 15 17 14 8 10 11 1 10 11 11 13 14 13 14 12 14 16 14 13 13 12 12 10 7 8 6 9 10 10 8 10 10 10 11 12 13 16 15 15 13 14 15 16 15 17 17 17 17 17 16 14 15 15 14 14 13 12 11 9 11 11 10
9 13 6 9 11 16 12 11 4 11 11 11 8 9 12 5 6 9 5 10 12 18 4 5 12 3 19 20 2 3 6 4 9 11 14 14 15 15 16 16 13 9 7 9 10 10 8 9 10 8 11 10 9 11 13 14 13 13 13 14 16 17 15 15 15 16 17 17 17 17 17 17 15 16 16 15 15 14 13 12 12 11 12 11 10 13
8 5 12 9 8 12 16 16 10 10 12 15 14 14 14 11 10 13 14 7 8 9 1 2 8 11 14 16 15 12 4 8 7 8 7 9 12 12 12 11 10 8 8 9 8 8 8 8 8 10 11 11 11 11 13 14 14 13 13 14 16 18 15 15 15 16 17 19 18 17 17 17 15 16 16 15 15 14 13 12 12 12 13 13 14 14
11 14 13 17 11 13 18 17 19 15 18 18 12 15 13 11 6 14 9 16 15 9 2 1 5 6 6 6 4 5 10 8 8 10 10 9 7 8 9 8 8 8 7 6 6 7 9 10 10 11 12 11 10 10 12 12 13 13 13 13 16 16 15 15 16 15 18 17 18 17 16 16 14 15 14 14 14 13 13 11 12 13 12 12 13 13
22 10 10 26 12 23 19 14 13 9 7 10 11 7 11 15 2 10 4 6 9 7 3 6 8 5 13 2 3 3 3 4 3 5 4 6 6 9 10 11 12 11 10 5 6 8 9 10 9 8 8 9 10 11 11 12 12 12 14 14 16 18 17 17 17 17 17 17 15 16 16 17 16 14 13 12 12 11 12 13 13 13 13 12 12 10
5 13 12 13 8 23 21 16 13 16 14 9 8 16 15 6 9 2 4 1 2 1 13 1 9 13 11 19 14 8 4 7 6 5 6 9 10 12 12 12 16 13 6 6 7 7 8 6 7 9 9 9 10 9 11 13 13 14 15 14 15 16 15 15 17 17 16 15 14 16 17 16 16 16 16 15 15 15 14 13 12 12 13 12 11 11
8 8 16 20 18 14 19 18 13 19 5 11 17 11 3 4 3 2 7 1 4 7 6 7 17 15 5 16 5 18 17 12 8 9 9 11 12 13 17 17 20 7 6 7 7 7 7 6 7 8 9 10 11 11 11 12 12 12 14 14 16 16 17 16 15 15 14 15 15 15 16 17 17 16 16 15 15 14 13 12 11 11 11 13 13 10
7 5 6 15 18 13 14 15 10 11 5 12 11 11 15 9 12 3 2 12 7 10 5 12 16 19 15 19 0 3 18 19 17 12 10 10 10 16 20 22 17 5 4 5 7 8 8 8 9 10 11 9 8 7 8 9 8 8 9 11 13 16 17 17 14 14 14 14 13 13 15 16 16 15 15 14 14 13 12 14 13 14 14 11 10 11
4 3 3 10 19 12 12 14 17 13 5 3 2 14 8 1 12 12 13 4 7 12 6 18 10 17 11 18 17 10 7 13 15 13 11 12 12 14 15 17 15 12 9 7 7 8 9 10 11 12 9 8 8 9 9 9 6 8 11 10 10 10 10 10 11 11 13 14 13 13 12 13 14 14 15 15 15 14 14 15 14 14 12 14 10 10
1 3 5 4 7 15 12 10 16 18 18 9 6 12 11 7 1 7 5 13 9 9 14 10 14 10 15 7 10 12 11 9 12 14 13 13 13 14 16 16 14 10 9 8 9 9 10 11 9 7 6 7 6 5 5 6 9 10 7 8 10 12 12 11 12 12 12 11 12 13 14 14 14 16 15 15 15 15 15 14 12 12 13 8 11 12
1 1 2 1 10 14 10 11 22 27 24 19 18 19 19 16 11 16 16 5 10 8 5 7 21 10 7 4 12 15 15 13 14 17 17 20 21 19 18 16 10 7 8 8 8 8 9 7 7 6 5 5 5 7 8 8 5 6 8 10 9 8 9 11 12 11 12 11 11 14 15 15 14 14 14 15 15 15 14 13 13 13 9 10 13 9
5 0 2 7 2 4 3 7 12 14 16 16 16 16 16 15 11 12 16 14 6 8 1 5 6 17 3 2 7 10 11 15 16 15 16 14 16 15 13 10 7 8 9 7 8 8 8 7 7 6 6 7 8 9 7 6 7 9 8 7 7 9 11 11 11 10 10 10 11 13 14 13 12 12 13 14 13 13 13 13 12 10 11 12 10 7
9 3 3 11 7 11 12 7 4 9 8 10 12 8 12 17 16 13 11 8 14 11 12 11 14 14 3 2 7 5 6 10 10 10 11 9 9 12 15 9 7 7 8 5 5 6 7 6 5 4 6 7 8 8 10 9 7 7 7 8 7 10 12 10 8 8 8 9 11 12 11 12 12 12 12 12 12 13 13 13 12 9 10 11 7 8
5 4 5 6 5 4 2 2 5 4 1 9 12 14 13 12 16 15 8 1 10 16 17 11 21 12 10 3 0 2 3 5 8 8 9 11 8 10 10 9 7 6 5 5 6 7 5 4 5 7 7 7 7 6 6 6 6 6 8 6 8 10 9 7 6 7 8 9 11 11 11 12 11 12 12 13 12 14 14 13 11 8 10 8 8 8
9 7 9 9 10 11 8 6 7 9 14 5 5 15 16 16 17 10 16 10 13 10 13 14 15 12 9 1 2 0 1 5 6 6 5 8 10 10 9 9 9 5 7 6 6 4 5 7 5 6 7 7 7 7 7 6 6 6 6 8 7 8 7 7 5 7 8 8 10 11 12 12 11 13 14 14 13 13 13 10 8 8 7 8 10 8
3 1 9 13 13 13 7 1 2 3 5 6 7 15 18 19 18 18 11 14 20 11 15 17 14 14 21 7 5 6 3 7 6 5 8 8 9 8 7 8 7 7 8 9 7 6 3 4 9 10 7 7 7 7 7 7 8 7 8 9 7 7 7 7 7 7 8 9 10 10 12 12 13 13 12 12 12 9 7 8 8 8 9 8 9 9
1 1 5 5 7 5 3 3 6 4 2 4 5 11 19 21 21 20 17 19 11 11 23 11 13 16 25 20 13 4 5 5 3 4 5 5 7 10 10 7 6 4 5 4 4 5 9 11 8 7 10 9 10 9 8 9 9 9 9 11 8 6 7 7 7 8 9 9 10 11 13 12 10 9 10 9 8 8 9 8 8 9 7 7 9 9
3 2 1 5 6 4 1 4 5 3 4 4 6 5 8 15 21 23 22 20 18 18 19 14 18 18 24 24 16 10 8 9 9 9 10 8 4 2 0 3 5 6 5 4 7 9 9 10 10 9 9 10 7 9 11 10 10 8 8 8 7 5 9 7 7 8 8 8 10 12 11 6 6 6 7 6 6 7 7 7 6 6 7 7 8 8
2 3 2 3 5 4 5 6 5 5 3 4 7 7 9 7 11 16 22 23 24 21 17 18 17 23 19 19 12 12 9 7 7 4 0 1 4 5 5 5 6 6 6 8 9 9 9 10 9 9 7 7 9 11 10 10 10 10 10 10 8 8 7 5 8 7 7 9 11 8 6 6 6 6 5 5 7 7 6 7 6 7 7 7 7 7
3 3 7 6 6 9 7 7 6 7 6 10 7 9 8 8 10 9 9 15 19 23 20 18 19 20 13 14 16 9 7 5 4 5 9 7 4 4 5 6 7 7 8 9 9 9 9 7 6 6 7 9 10 12 12 11 10 7 7 9 8 8 6 6 7 8 8 10 7 5 5 6 6 5 6 6 6 6 6 7 6 6 6 6 6 7
2 2 2 1 4 2 3 7 8 8 9 11 12 9 9 10 9 6 7 5 6 14 19 22 21 19 15 21 21 3 5 8 13 14 10 6 6 6 8 9 9 9 9 9 9 8 8 8 7 9 11 12 11 10 9 10 9 5 10 9 8 7 5 7 8 9 9 8 5 6 6 6 6 6 6 6 7 7 6 6 6 6 7 7 6 6
5 3 2 1 0 2 1 5 3 4 5 10 14 13 13 12 10 6 6 5 10 8 12 16 21 18 22 19 16 4 9 12 13 8 6 8 11 12 13 13 10 8 9 10 10 10 8 8 10 12 13 10 11 10 11 9 5 10 12 8 7 5 7 8 8 7 7 6 7 7 6 6 7 7 7 7 6 6 7 7 7 7 7 8 6 6
4 4 4 2 2 2 5 3 2 3 5 8 3 6 14 10 12 13 9 12 15 10 8 7 13 15 19 21 20 16 11 13 7 6 8 11 13 14 14 12 8 8 9 9 8 9 10 10 10 11 12 11 8 8 8 6 11 10 4 5 4 7 7 7 7 7 8 7 7 7 6 7 7 7 7 7 7 7 8 8 9 7 6 6 6 7
6 5 4 2 3 4 1 2 6 9 9 2 2 2 5 8 8 13 13 13 13 12 13 14 18 20 24 22 19 15 13 8 4 6 7 7 6 8 12 13 11 9 10 11 11 12 13 13 11 11 10 10 11 8 6 7 8 5 4 5 6 6 7 7 7 8 8 7 6 6 6 7 7 8 7 7 7 7 7 8 6 7 7 7 8 8
7 7 3 2 3 2 3 2 4 8 2 3 5 5 2 2 5 4 9 11 14 16 15 15 16 18 22 23 20 13 10 4 6 6 10 12 13 12 9 10 11 11 11 12 13 13 12 12 14 15 15 10 7 9 8 10 6 7 6 4 6 6 7 7 8 8 7 7 7 8 8 8 8 8 7 7 7 8 8 7 8 8 6 5 4 4
9 4 4 2 4 5 6 8 9 6 14 12 7 5 2 6 4 7 9 10 10 14 13 13 17 18 19 20 21 19 10 6 10 17 15 14 9 7 11 12 13 12 11 13 13 15 14 14 13 13 10 9 10 10 11 7 7 8 6 6 6 5 6 6 8 9 9 9 9 9 9 9 9 8 9 8 9 9 8 8 8 6 5 6 6 6
10 9 5 6 3 7 5 1 2 1 9 6 8 6 3 3 3 3 2 11 6 9 12 14 16 19 18 19 18 13 3 6 15 20 23 9 7 8 12 12 10 10 13 16 14 13 13 12 11 11 11 13 13 9 4 5 6 7 8 7 6 6 7 8 11 10 9 11 10 10 9 9 9 10 10 9 11 10 8 6 5 6 6 8 8 7
8 10 8 11 6 4 4 6 7 9 10 8 6 8 10 6 4 3 1 15 8 12 11 12 15 18 18 17 13 3 3 8 16 20 4 11 11 13 14 14 14 15 17 16 15 14 16 18 16 14 11 9 9 10 7 7 7 7 8 8 8 7 7 11 12 10 13 12 9 9 9 9 9 10 10 10 10 9 10 9 8 6 6 6 7 6
11 8 7 9 10 8 8 9 10 5 9 6 5 6 6 7 7 4 8 13 10 10 10 12 16 18 17 10 2 4 8 12 19 13 5 12 12 16 15 15 16 15 15 15 15 16 17 14 7 7 9 10 14 13 8 7 8 9 9 9 8 9 12 14 16 13 6 5 8 9 9 9 10 10 11 11 8 8 8 6 6 7 7 6 6 6
9 7 11 14 13 13 13 8 4 6 5 6 8 4 3 4 5 9 12 16 1 8 11 14 14 14 10 4 4 8 12 15 16 9 5 5 4 4 9 11 14 15 17 17 17 17 14 13 11 13 15 14 14 9 6 8 9 10 9 8 9 13 16 16 9 6 8 7 8 9 10 9 10 11 9 8 8 7 6 7 8 7 7 7 6 6
5 6 8 12 12 11 10 12 12 8 7 4 6 10 8 6 3 10 14 3 1 5 4 0 6 8 6 7 8 11 13 13 10 10 9 12 9 9 8 12 11 10 9 9 12 11 10 10 8 11 11 10 10 6 8 9 11 11 9 9 13 17 16 8 7 7 8 10 11 9 9 10 8 8 8 8 8 9 8 6 6 7 7 6 6 8
7 7 7 10 7 7 5 5 6 11 5 18 6 2 1 7 10 10 9 6 5 11 5 4 7 8 7 9 10 12 13 10 10 11 13 15 9 11 14 11 11 12 14 13 12 12 10 10 11 13 15 13 10 7 7 9 11 11 9 13 17 14 9 7 7 9 9 9 10 11 10 9 10 10 8 9 9 10 9 8 8 8 7 8 8 8
3 4 3 7 7 7 10 11 10 11 16 2 11 10 10 15 12 7 5 12 12 7 3 5 6 7 6 9 13 12 10 9 10 11 14 16 15 12 12 11 10 11 13 14 12 10 6 10 11 12 11 11 9 7 8 11 12 11 12 17 15 7 5 7 8 8 9 9 9 9 10 10 10 9 8 10 10 9 9 9 8 8 8 8 8 8
6 8 5 5 6 9 6 7 8 6 6 5 11 8 7 12 13 13 12 14 13 10 7 8 10 11 10 13 15 15 13 8 10 13 14 16 16 14 14 15 15 15 15 15 15 8 5 10 13 12 11 9 6 5 7 9 12 13 14 14 7 9 10 10 10 10 10 10 9 9 8 8 9 10 10 10 11 11 10 10 9 10 8 8 8 8
5 7 5 5 7 5 8 10 2 4 10 10 6 7 9 11 11 13 13 14 13 13 10 8 8 12 11 12 14 13 11 10 9 12 14 15 15 16 15 13 13 13 12 10 11 10 9 8 7 7 10 12 8 8 8 10 11 14 15 10 10 10 8 9 10 11 12 10 9 9 8 9 7 7 9 11 10 10 9 11 11 10 9 8 8 8
4 5 5 8 2 9 7 6 13 14 9 13 8 8 8 6 9 10 14 16 16 15 13 12 14 11 11 13 15 16 15 10 8 12 14 14 14 16 17 15 15 15 13 12 14 9 7 8 9 10 10 12 11 10 10 12 13 16 13 9 9 9 10 10 11 10 9 10 9 8 9 11 9 8 7 8 8 8 8 8 9 9 9 9 10 9
7 2 6 9 8 9 9 6 8 8 12 13 13 8 10 13 14 13 13 16 18 17 15 16 13 9 7 11 15 17 16 11 10 12 13 14 15 16 16 16 16 15 13 11 10 6 7 8 9 11 11 13 15 10 10 10 13 14 11 7 8 10 10 11 11 12 12 12 10 9 10 10 11 11 8 8 8 8 9 9 9 10 12 13 12 12
3 7 1 3 4 6 5 12 13 11 16 18 16 12 13 15 15 18 19 17 17 18 16 12 5 6 6 12 15 16 17 14 10 13 15 15 15 15 15 18 17 14 13 9 9 7 9 9 10 12 12 14 13 8 8 11 12 10 10 9 10 12 13 13 12 11 10 10 9 9 9 9 9 9 9 8 7 5 4 6 8 8 5 2 2 5
9 13 8 9 13 11 11 10 7 13 13 15 22 20 17 15 10 9 11 14 16 17 18 19 14 7 10 11 13 14 17 18 15 13 16 16 17 19 18 18 15 13 12 10 7 6 8 10 11 12 12 14 11 7 9 10 10 7 7 6 7 10 13 12 11 10 10 10 10 9 10 9 9 9 9 9 8 7 4 4 4 3 4 4 4 8
11 12 11 14 12 14 15 18 13 11 12 14 12 14 11 8 8 7 12 14 17 20 19 17 15 15 13 12 11 13 17 21 21 17 16 16 18 19 17 16 15 13 12 9 6 8 9 11 10 10 12 14 9 8 8 8 6 6 6 8 9 10 10 9 9 8 9 10 10 12 12 10 10 10 9 9 9 8 8 6 3 4 9 9 7 8
Wind_Direction
143 185 193 202 212 209 206 213 223 248 307 161 188 200 213 217 228 233 226 206 190 210 225 229 241 250 250 249 249 244 235 229 240 245 243 242 242 245 243 240 236 233 236 227 222 220 215 213 211 211 206 205 202 202 199 199 202 202 202 197 205 201 195 191 191 193 193 196 198 203 205 211 204 204 201 206 208 208 210 205 205 200 201 201 205 206
169 200 215 215 210 198 205 206 220 236 300 207 196 205 222 211 228 206 227 200 201 190 244 219 243 254 244 249 247 244 219 223 231 240 244 245 241 241 242 245 241 241 250 253 248 232 224 219 217 211 209 203 200 207 199 202 203 201 201 201 207 196 198 198 196 195 196 198 198 198 206 204 200 197 199 208 206 209 208 207 208 207 204 203 204 204
190 212 218 209 183 200 206 196 203 220 227 267 221 212 228 226 237 275 249 180 212 188 241 221 236 256 246 240 248 241 223 226 225 225 232 235 240 241 241 244 248 251 247 234 239 228 220 215 212 207 209 207 207 202 199 204 201 202 202 205 202 199 200 203 199 195 201 200 203 201 206 198 207 211 211 214 211 209 212 213 211 208 207 205 207 203
204 224 223 178 186 203 199 178 192 215 229 229 222 195 220 143 153 232 237 215 222 199 206 218 247 258 267 251 253 246 226 235 232 225 230 227 234 235 235 234 239 242 245 239 229 222 218 212 211 209 210 211 207 206 209 207 204 203 205 204 200 200 201 204 204 205 206 202 201 206 197 198 202 205 199 205 203 210 216 220 212 214 209 206 209 204
203 226 185 169 198 195 191 178 191 199 220 223 228 229 222 171 205 222 255 233 236 254 118 307 287 267 250 253 252 244 226 238 244 225 233 238 236 240 242 241 233 237 238 239 236 229 220 218 215 209 212 207 206 208 208 204 204 205 205 203 200 200 200 202 202 204 201 188 190 189 163 153 185 135 178 193 216 212 212 214 211 214 204 206 210 207
219 175 148 192 189 177 188 197 200 192 216 221 226 224 223 214 249 215 254 245 285 272 201 168 276 259 234 241 235 239 224 231 243 227 224 229 233 239 240 238 239 243 241 238 236 225 213 216 217 216 214 209 211 212 211 205 208 206 207 204 203 204 203 203 202 200 192 195 191 181 185 189 196 207 195 201 210 207 204 210 210 206 204 207 210 209
208 181 170 182 171 183 196 206 200 188 214 213 223 209 214 234 235 216 213 163 252 251 274 186 217 271 95 243 226 222 234 231 238 228 226 226 232 233 234 235 237 237 243 243 246 237 215 221 218 219 212 210 212 217 207 207 210 209 208 204 202 202 204 203 199 189 190 198 199 198 200 202 202 208 213 215 220 213 214 205 204 208 204 208 208 211
162 180 171 173 176 184 196 210 198 189 199 228 104 159 202 222 220 230 185 191 245 354 286 271 227 262 274 245 207 215 229 235 237 241 230 227 233 235 235 237 237 237 238 238 236 231 224 217 211 218 215 212 215 213 203 208 208 207 208 203 203 205 205 201 196 190 192 197 200 203 207 210 213 213 218 211 217 213 199 204 210 204 208 208 211 211
187 177 177 174 179 187 202 203 175 179 196 233 146 152 198 199 213 228 199 208 243 20 268 226 82 293 247 251 170 163 244 228 242 238 236 228 227 234 237 238 239 239 237 231 232 228 223 223 220 220 218 218 218 211 205 208 206 206 207 207 205 207 204 201 194 194 195 199 199 203 206 214 219 220 225 214 210 210 204 208 209 209 211 210 213 214
193 181 183 178 179 197 182 169 157 172 209 216 172 166 169 174 182 94 89 93 335 188 248 233 173 237 270 163 188 195 227 233 221 230 237 228 224 229 234 237 239 244 244 227 228 229 227 228 226 221 224 225 218 212 211 211 206 206 206 207 205 209 204 200 197 197 199 200 200 205 208 213 215 214 219 207 207 206 200 213 210 211 212 211 212 215
183 186 172 177 193 177 163 164 170 183 193 112 118 92 126 156 207 351 47 117 42 240 249 227 185 201 270 206 192 172 223 211 207 229 238 232 230 240 238 236 239 238 237 234 229 232 232 230 229 224 223 227 220 214 208 208 206 207 206 207 209 211 205 199 199 197 201 200 202 208 208 211 213 211 212 213 216 205 204 212 213 210 213 209 213 210
200 152 170 197 169 172 155 170 182 174 162 153 163 126 99 257 57 205 286 98 214 249 247 216 200 190 234 269 168 198 153 178 179 202 216 226 226 233 235 237 237 235 233 235 236 238 233 239 234 220 228 226 218 207 207 209 208 209 209 208 212 214 208 203 201 200 204 202 206 210 210 212 213 209 211 213 216 211 211 213 214 212 211 214 214 211
194 190 154 162 182 154 169 162 190 162 163 177 140 142 169 201 154 222 147 215 198 225 315 187 161 185 227 235 98 183 231 224 196 196 205 214 226 229 233 237 238 236 239 236 233 237 235 225 225 221 229 226 214 208 205 206 206 209 209 208 211 215 208 206 200 201 203 204 208 208 210 213 212 212 213 214 218 215 215 214 213 206 212 214 211 215
204 180 178 169 154 183 161 178 157 177 192 177 182 175 182 192 187 211 206 229 246 263 234 6 155 218 256 271 236 218 225 213 206 228 227 221 227 233 241 251 250 243 231 230 225 229 235 229 227 224 227 223 217 212 207 208 208 208 209 209 212 218 208 207 203 205 205 208 209 207 210 212 210 213 213 216 217 217 216 215 214 212 212 212 215 215
172 201 202 158 205 159 189 188 178 179 177 195 181 187 197 191 189 204 196 208 218 225 343 293 123 230 198 251 327 226 211 202 212 210 217 227 240 252 255 260 260 256 243 225 229 226 228 229 224 225 224 225 217 210 210 210 210 209 211 210 213 220 214 209 209 207 209 211 210 209 210 212 211 213 215 217 217 216 215 215 216 218 217 217 219 217
202 215 161 183 166 170 190 184 177 155 179 193 190 178 204 212 105 234 195 218 224 234 222 205 213 189 227 105 223 288 340 303 297 256 263 260 256 259 264 262 254 241 242 219 233 243 241 234 234 233 231 226 220 215 211 211 210 208 213 211 212 215 214 209 210 211 211 213 210 209 210 212 212 214 216 219 219 220 215 216 216 220 219 221 222 221
167 228 146 179 182 180 182 174 186 151 192 175 176 212 207 178 215 112 14 278 81 212 242 217 287 266 308 286 258 249 265 272 271 262 239 243 247 253 260 260 257 244 223 223 227 234 243 249 242 231 227 225 221 217 212 211 207 207 209 210 215 219 219 215 214 214 212 212 209 210 211 211 212 213 213 215 216 216 216 217 218 220 222 223 223 222
215 204 170 173 188 196 184 184 174 183 144 146 206 192 73 40 80 184 211 110 179 231 251 195 238 257 214 269 221 211 228 234 244 240 233 230 237 246 250 245 248 235 202 219 228 229 231 234 236 234 231 226 218 214 216 217 211 211 210 208 211 216 217 218 214 215 214 213 213 214 213 213 213 213 215 216 217 216 216 216 219 221 223 221 221 218
18 192 204 182 182 186 179 167 196 206 181 200 198 145 182 184 218 211 150 223 170 218 238 227 225 244 212 241 83 231 213 211 220 226 226 230 230 236 244 250 254 234 206 216 231 237 241 239 237 230 227 228 228 227 226 229 221 219 219 218 215 217 216 215 211 212 214 212 213 213 213 212 213 215 217 218 219 218 215 217 217 218 222 225 220 217
2 274 152 198 185 162 170 170 195 191 265 322 105 182 195 191 209 175 204 242 198 233 210 249 213 247 212 234 228 217 203 214 214 217 225 225 223 231 240 247 248 242 228 228 233 234 235 239 235 230 225 226 222 223 223 223 217 218 220 217 221 229 228 224 220 215 215 214 214 215 213 215 215 215 216 216 215 216 216 217 218 219 221 222 215 218
321 289 266 192 192 150 203 184 191 182 189 199 187 189 186 213 240 202 220 210 204 211 221 243 247 229 241 203 220 212 212 199 204 213 222 230 232 233 238 240 239 237 234 230 232 237 239 241 244 244 239 239 244 241 235 219 215 220 216 217 217 215 219 217 217 213 216 213 215 215 213 213 211 214 214 217 217 219 219 221 219 218 221 215 217 215
57 280 215 192 189 197 189 185 197 191 188 186 180 192 191 181 182 187 221 213 227 211 221 195 244 253 265 206 184 196 204 194 199 197 208 218 225 228 230 238 238 241 235 226 230 232 243 249 253 251 247 247 241 242 234 228 218 226 218 218 219 219 221 219 219 212 214 211 213 213 216 216 214 214 214 216 217 218 220 221 219 220 216 212 222 206
146 106 358 289 282 241 218 235 231 214 198 196 183 197 191 198 192 197 210 207 221 228 131 253 294 258 209 167 196 193 204 202 204 198 207 215 226 235 243 241 240 232 241 223 228 239 242 240 239 237 233 233 230 238 236 232 218 223 220 216 218 213 225 219 219 212 209 211 212 217 218 216 217 214 214 216 218 220 219 222 222 215 212 217 218 201
103 227 173 272 275 264 274 284 276 224 199 214 224 226 194 203 197 209 215 193 211 210 225 226 237 262 274 228 216 219 225 209 205 196 206 218 224 235 242 245 230 237 248 244 243 254 253 256 268 274 258 247 242 238 235 228 224 225 223 219 214 217 225 222 220 211 205 212 217 218 216 215 216 213 213 215 216 218 218 220 220 210 211 216 202 200
153 213 173 255 270 301 305 1 280 4 229 214 200 208 215 208 204 212 223 113 227 213 219 208 239 243 251 227 359 253 257 240 227 216 207 214 231 237 245 249 243 238 255 251 237 235 245 256 250 239 237 239 242 245 245 235 227 222 226 216 218 225 227 224 215 206 210 208 215 215 214 217 213 212 213 214 213 217 218 219 215 200 206 200 198 202
198 166 160 204 220 244 246 220 210 199 201 188 222 205 211 209 208 190 218 206 238 213 208 224 244 251 265 65 226 312 239 242 246 233 205 211 220 235 246 249 252 235 224 218 228 244 230 229 243 253 247 246 245 240 242 240 235 234 236 233 221 224 225 223 205 213 213 213 213 216 213 216 211 213 214 213 214 216 217 212 202 197 200 192 202 198
172 244 199 191 208 226 229 110 140 92 0 220 213 201 210 210 210 208 209 210 219 205 227 225 229 245 252 226 238 248 233 178 207 213 197 220 239 240 244 243 235 217 203 208 211 226 280 288 247 238 247 242 246 243 241 240 241 234 232 241 233 227 221 217 201 211 212 215 216 218 217 214 213 212 213 212 215 213 205 201 197 191 200 195 198 195
126 157 224 219 229 217 162 147 152 126 235 233 270 238 214 209 211 211 209 221 199 212 236 212 222 229 247 242 227 230 226 240 257 249 235 236 232 218 221 224 232 234 241 248 258 242 228 234 243 244 241 240 241 242 248 245 243 241 232 238 233 222 223 215 201 211 214 212 216 220 221 218 214 211 213 213 209 204 203 198 195 199 194 183 197 199
154 223 160 163 252 261 203 178 164 163 188 230 215 240 276 242 217 217 222 221 211 220 229 210 218 223 239 241 227 214 197 207 206 209 212 204 201 204 191 203 213 228 236 233 236 231 230 232 235 238 239 240 245 246 243 244 247 245 250 246 242 218 225 208 199 213 213 212 217 222 221 211 211 212 214 209 202 204 202 198 196 191 187 190 198 197
93 252 143 181 246 217 203 206 177 192 225 217 221 229 226 252 282 257 234 225 223 230 230 234 233 234 238 253 239 228 213 199 217 212 25 212 217 191 192 221 220 229 230 236 238 237 233 234 242 243 242 244 236 240 242 240 239 235 234 240 231 223 226 177 213 212 214 216 222 222 208 205 203 201 191 187 194 196 190 189 186 181 186 193 195 194
161 246 165 177 221 251 233 220 200 211 221 239 235 225 229 250 244 242 291 284 257 239 239 240 245 251 247 257 251 229 213 203 249 231 225 219 214 205 205 216 228 227 230 231 237 242 246 256 268 277 265 256 247 238 237 237 238 235 237 241 230 223 208 188 211 214 213 223 218 203 199 192 192 171 184 190 183 183 182 180 173 177 181 182 182 182
131 246 73 196 182 265 173 169 197 206 221 234 252 222 216 214 234 235 230 198 268 267 239 236 244 244 245 243 250 177 163 195 221 229 230 228 222 222 227 233 225 229 230 233 239 244 250 247 252 254 253 250 246 245 240 240 237 219 238 231 225 215 182 196 211 212 219 223 200 198 193 188 171 176 183 175 185 178 176 164 166 173 174 172 176 178
175 181 120 242 271 258 147 145 136 209 233 246 235 226 207 204 207 239 229 226 226 224 271 240 233 238 242 244 251 209 198 213 223 222 231 248 245 236 232 232 236 237 233 228 230 235 239 243 238 239 246 248 243 237 237 230 223 226 231 219 215 175 193 202 206 209 217 212 201 203 191 179 177 179 176 184 173 169 164 168 170 172 170 178 173 155
155 158 177 148 142 203 121 126 139 17 240 240 293 184 180 197 199 214 227 226 235 204 225 251 278 269 262 258 249 240 225 233 236 230 210 213 229 243 257 263 257 255 265 270 265 259 254 247 244 240 237 241 247 238 242 206 219 235 218 199 174 188 201 194 205 204 211 203 203 194 187 182 177 180 181 171 168 165 169 172 181 177 173 157 159 167
166 178 198 172 152 241 255 29 323 263 245 242 360 316 198 210 193 202 224 223 232 227 227 244 254 262 259 254 254 256 259 268 253 235 242 236 232 231 236 243 241 232 234 238 245 244 241 240 245 251 255 248 239 240 226 234 226 228 183 174 186 198 193 201 200 208 207 201 198 183 181 179 178 180 176 172 168 168 173 175 167 167 171 167 170 170
178 174 167 214 150 230 78 121 240 239 224 82 318 294 223 218 216 220 256 239 236 232 226 233 242 250 260 267 268 263 266 301 298 262 241 227 211 213 219 231 236 228 230 231 232 239 238 237 236 236 239 239 231 236 211 222 193 186 205 170 192 197 206 201 204 210 198 202 194 189 186 180 182 177 171 170 170 173 176 176 174 171 168 154 157 154
166 149 175 231 194 213 174 203 236 317 314 294 290 278 179 230 188 180 252 258 216 229 223 228 240 243 248 253 257 258 260 310 292 271 243 230 223 211 210 224 230 234 230 238 229 234 235 235 235 238 240 243 232 229 225 213 178 174 162 175 199 189 211 208 214 211 200 202 195 192 187 183 178 175 175 174 174 182 180 177 180 173 163 158 167 164
167 182 181 196 225 185 212 270 298 313 262 256 216 232 216 206 175 183 194 280 234 229 213 219 236 243 245 251 253 256 234 264 263 263 256 223 180 214 233 233 236 235 234 237 238 236 243 244 240 238 229 235 240 234 205 178 197 170 170 184 181 188 211 214 224 212 201 204 196 189 184 183 178 177 178 178 185 185 183 178 172 175 176 174 174 181
198 189 175 188 221 161 191 219 230 244 246 243 233 220 222 215 157 108 229 270 236 193 213 210 232 240 241 246 257 76 124 241 254 257 328 142 189 206 218 231 228 229 231 233 234 238 239 240 234 235 235 240 252 245 194 188 178 175 191 186 178 185 210 224 227 213 209 205 186 184 183 180 179 179 179 184 185 178 179 183 181 167 171 172 169 176
191 192 167 201 215 211 199 215 233 209 251 241 207 223 215 145 143 111 245 260 267 156 200 207 228 239 243 252 72 148 192 238 248 263 152 173 190 203 204 223 230 231 236 238 237 236 242 247 247 253 246 237 237 239 191 183 180 197 201 195 171 176 212 225 223 215 206 182 184 184 180 182 180 179 180 182 174 176 179 165 162 173 175 172 169 166
201 198 196 205 204 219 210 239 270 259 262 220 199 203 95 131 122 194 221 251 223 177 201 213 226 240 254 254 166 231 226 234 256 266 219 231 265 283 242 231 227 217 221 229 236 239 242 245 230 235 238 233 236 230 178 179 186 207 209 185 177 203 213 221 219 185 184 179 183 187 186 184 182 180 180 173 171 165 163 173 176 169 173 169 167 161
214 210 213 204 214 213 211 219 226 244 249 244 219 179 156 100 184 215 235 238 67 271 247 236 256 262 257 232 225 231 247 252 256 277 277 259 232 234 235 242 256 270 265 254 250 247 247 250 246 248 257 251 244 208 183 182 198 214 202 187 206 213 218 196 169 182 178 180 187 188 187 186 182 173 169 159 157 166 175 177 168 174 170 165 165 168
185 186 205 203 209 216 213 224 231 250 232 225 182 46 161 198 231 224 245 275 224 255 228 219 219 241 223 248 239 240 253 266 270 268 269 272 261 247 251 249 248 248 250 249 252 244 231 243 242 241 241 245 234 206 189 182 204 214 202 208 218 216 205 169 163 172 181 184 186 188 187 185 176 172 166 168 170 169 174 171 169 170 169 165 166 166
238 267 212 221 190 210 198 201 214 207 239 141 144 199 187 208 231 234 238 263 255 250 211 232 245 244 234 238 255 259 247 250 270 270 270 273 272 262 261 260 255 254 259 257 246 253 231 238 247 250 249 247 235 199 185 181 207 212 207 221 221 202 171 160 167 164 175 190 194 188 186 181 176 171 169 169 167 170 170 174 173 169 175 171 168 167
179 205 199 211 204 212 203 218 232 247 256 201 193 222 207 219 230 236 233 244 256 253 229 232 246 250 243 247 255 257 266 246 242 258 263 266 270 268 263 257 250 248 248 253 259 250 225 231 242 245 257 259 249 206 198 199 204 213 214 227 192 194 183 173 165 168 180 190 191 188 186 178 180 176 172 171 169 173 175 174 172 172 177 170 171 172
240 228 224 253 239 231 264 270 306 273 256 252 221 226 211 221 227 238 243 252 250 249 241 226 231 238 243 243 251 261 250 252 252 261 264 264 267 269 267 268 268 260 255 258 265 252 236 246 248 253 256 264 240 212 200 206 206 214 222 214 192 195 171 168 167 175 184 182 182 183 171 176 184 186 180 173 177 180 181 177 177 176 172 173 177 176
258 260 270 247 261 257 253 190 229 240 254 263 236 237 253 235 229 231 242 247 253 249 246 240 240 230 228 245 246 253 260 250 243 252 261 267 269 268 269 265 263 260 257 252 248 252 256 243 248 246 242 252 250 221 214 207 211 218 224 204 190 171 170 170 176 176 173 177 175 171 172 175 180 176 183 184 179 177 175 174 178 175 175 180 177 177
282 241 239 247 256 250 256 256 260 243 244 255 257 235 233 239 240 237 232 242 249 250 245 245 245 248 239 251 256 261 260 257 252 256 260 261 261 263 266 266 262 265 258 242 255 246 248 246 240 245 242 244 250 231 221 217 220 219 216 191 173 168 167 174 177 178 180 178 172 174 176 178 173 172 176 183 185 182 175 180 183 182 184 184 181 177
266 332 212 297 278 274 302 259 254 273 270 263 260 243 241 237 227 234 239 242 252 264 268 265 234 236 228 239 254 262 267 261 245 252 257 262 263 263 263 262 261 254 258 258 244 227 229 241 246 245 244 247 250 241 227 226 227 222 205 193 177 170 173 183 183 177 170 167 167 172 175 175 173 177 173 172 179 185 194 193 190 186 177 185 184 193
270 257 277 286 271 265 248 250 229 234 244 250 251 255 253 258 258 255 263 266 268 264 264 271 271 232 230 234 240 253 264 268 260 251 256 257 259 261 263 266 263 255 250 244 242 230 236 240 241 250 247 249 251 241 236 233 230 215 204 186 188 180 182 180 172 170 172 169 171 169 168 173 173 173 169 169 168 155 118 64 138 171 165 153 128 139
229 238 232 238 235 244 244 247 253 263 266 264 283 280 274 274 270 249 249 255 260 266 268 267 272 274 260 244 229 238 253 262 265 260 258 260 260 259 257 258 258 257 250 237 229 243 232 241 244 250 258 254 246 235 234 233 220 205 202 189 180 183 186 168 169 174 170 171 180 180 175 170 170 172 170 166 162 153 148 131 73 106 146 141 137 145